Scottsbluff, NE

5:58 PM MST on November 22, 2017 (GMT -0700)
Heilig

Weather History for KBFF - July, 2013

Change the Weather History Date:

Wednesday, July 24, 2013

  Actual Average Record
Temperature  
Mean Temperature 76 °F 75 °F  
Max Temperature 89 °F 90 °F 105 °F (2014)
Min Temperature 62 °F 59 °F 44 °F (1911)
Degree Days  
Heating Degree Days 0 0  
Month to date heating degree days 0 1  
Since 1 June heating degree days 21 61  
Since 1 July heating degree days 0 1  
Cooling Degree Days 11 10  
Month to date cooling degree days 274 220  
Year to date cooling degree days 523 369  
Since 1 June cooling degree days 469 346  
Growing Degree Days 26 (Base 50)    
Moisture  
Dew Point 58 °F    
Average Humidity 64    
Maximum Humidity 93    
Minimum Humidity 34    
Precipitation  
Precipitation 0.01 in 0.06 in 1.58 in (1972)
Month to date precipitation 0.75 1.45  
Year to date precipitation 6.93 10.62  
Snow  
Snow 0.00 in 0.00 in - ()
Month to date snowfall 0.0 0.0  
Since 1 July snowfall 0.0 0.0  
Snow Depth 0.00 in    
Sea Level Pressure  
Sea Level Pressure 30.02 in    
Wind  
Wind Speed 11 mph (SE)    
Max Wind Speed 32 mph    
Max Gust Speed 43 mph    
Visibility 10 miles    
Events Rain , Thunderstorm    
T = Trace of Precipitation, MM = Missing Value Source: NWS Daily Summary

Daily Weather History Graph

Daily Weather History Graph

Search for Another Location

Airport or City:

Trip Planner

Search our weather history database for the weather conditions in past years. The results will help you decide how hot, cold, wet, or windy it might be!

Date:

Astronomy

Jul. 24, 2013 Rise Set
Actual Time 5:40 AM MDT 8:20 PM MDT
Civil Twilight 5:08 AM MDT 8:52 PM MDT
Nautical Twilight 4:27 AM MDT 9:33 PM MDT
Astronomical Twilight 3:41 AM MDT 10:18 PM MDT
Moon 9:24 PM MDT (7/24) 8:06 AM MDT (7/24)
Length of Visible Light 15h 44m
Length of Day
14h 39m
Waning Gibbous, 94% of the Moon is Illuminated
Jul 24
Waning Gibbous
Jul 29
Last Quarter
Aug 6
New
Aug 14
First Quarter
Aug 20
Full

Hourly Weather History & Observations

Time (MDT) Temp. Heat Index Dew Point Humidity Pressure Visibility Wind Dir Wind Speed Gust Speed Precip Events Conditions
12:53 AM 66.0 °F - 60.1 °F 81% 30.01 in 10.0 mi East 6.9 mph - N/A   Clear
1:53 AM 64.9 °F - 60.1 °F 84% 30.01 in 10.0 mi East 5.8 mph - N/A   Clear
2:53 AM 64.9 °F - 60.1 °F 84% 30.01 in 10.0 mi East 6.9 mph - N/A   Clear
3:53 AM 64.0 °F - 60.1 °F 87% 30.01 in 10.0 mi East 5.8 mph - N/A   Clear
4:53 AM 63.0 °F - 59.0 °F 87% 30.02 in 10.0 mi East 5.8 mph - N/A   Clear
5:53 AM 63.0 °F - 60.1 °F 90% 30.03 in 10.0 mi ESE 5.8 mph - N/A   Clear
6:53 AM 64.0 °F - 61.0 °F 90% 30.04 in 8.0 mi ESE 6.9 mph - N/A   Clear
7:29 AM 66.2 °F - 60.8 °F 83% 30.19 in 9.0 mi East 5.8 mph - N/A   Mostly Cloudy
7:36 AM 66.2 °F - 60.8 °F 83% 30.19 in 8.0 mi ESE 5.8 mph - N/A   Scattered Clouds
7:53 AM 69.1 °F - 61.0 °F 75% 30.04 in 10.0 mi SE 6.9 mph - N/A   Clear
8:53 AM 71.1 °F - 62.1 °F 73% 30.06 in 10.0 mi South 4.6 mph - N/A   Clear
9:53 AM 75.0 °F - 62.1 °F 64% 30.05 in 10.0 mi SE 6.9 mph - N/A   Clear
10:53 AM 80.1 °F 81.5 °F 63.0 °F 56% 30.04 in 10.0 mi ESE 6.9 mph - N/A   Clear
11:53 AM 84.0 °F 84.5 °F 62.1 °F 47% 30.01 in 10.0 mi SE 9.2 mph 17.3 mph N/A   Clear
12:53 PM 87.1 °F 86.7 °F 60.1 °F 40% 29.97 in 10.0 mi ESE 12.7 mph 18.4 mph N/A   Scattered Clouds
1:22 PM 84.2 °F 82.8 °F 53.6 °F 35% 30.11 in 10.0 mi SSE 12.7 mph - N/A   Partly Cloudy
1:53 PM 84.9 °F 83.7 °F 55.9 °F 37% 29.97 in 10.0 mi South 10.4 mph - N/A   Clear
2:53 PM 87.1 °F 85.3 °F 55.0 °F 33% 29.95 in 10.0 mi SSE 10.4 mph - N/A   Clear
3:40 PM 78.8 °F - 57.2 °F 47% 30.12 in 10.0 mi NE 15.0 mph - N/A   Partly Cloudy
3:53 PM 78.1 °F - 57.0 °F 48% 30.00 in 10.0 mi ENE 24.2 mph 31.1 mph N/A   Clear
4:53 PM 77.0 °F - 51.1 °F 40% 29.98 in 10.0 mi East 23.0 mph 31.1 mph N/A   Clear
5:53 PM 73.0 °F - 52.0 °F 48% 29.96 in 10.0 mi SE 16.1 mph - N/A   Clear
6:53 PM 73.0 °F - 52.0 °F 48% 29.94 in 10.0 mi ESE 17.3 mph 23.0 mph N/A   Clear
7:42 PM 68.0 °F - 57.2 °F 68% 30.16 in 10.0 mi SSW 18.4 mph 27.6 mph 0.00 in Rain , Thunderstorm Light Rain
7:53 PM 68.0 °F - 59.0 °F 73% 30.05 in 10.0 mi South 8.1 mph 24.2 mph 0.00 in Rain Light Rain
8:53 PM 64.9 °F - 57.9 °F 78% 29.95 in 10.0 mi South 31.1 mph 42.6 mph 0.00 in Rain Light Rain
9:53 PM 66.0 °F - 57.0 °F 73% 29.96 in 10.0 mi South 11.5 mph - 0.01 in   Clear
10:53 PM 64.9 °F - 57.0 °F 75% 29.98 in 10.0 mi South 6.9 mph - N/A   Clear
11:53 PM 64.0 °F - 57.0 °F 78% 29.99 in 10.0 mi South 12.7 mph 20.7 mph N/A   Clear